Weather History for KCVX - February, 2012

Change the Weather History Date:

Sunday, February 19, 2012

  Actual Average Record
Temperature  
Mean Temperature 22 °F -  
Max Temperature 33 °F 32 °F 41 °F (2002)
Min Temperature 10 °F 20 °F -14 °F (2015)
Degree Days  
Heating Degree Days 44    
Moisture  
Dew Point 16 °F    
Average Humidity 80    
Maximum Humidity 93    
Minimum Humidity 56    
Precipitation  
Precipitation 0.00 in - - ()
Sea Level Pressure  
Sea Level Pressure 30.19 in    
Wind  
Wind Speed 4 mph (South)    
Max Wind Speed 13 mph    
Max Gust Speed -    
Visibility 10 miles    
Events      
Averages and records for this station are not official NWS values.
T = Trace of Precipitation, MM = Missing Value Source: NWS Daily Summary

Daily Weather History Graph

Daily Weather History Graph

Search for Another Location

Airport or City:

Trip Planner

Search our weather history database for the weather conditions in past years. The results will help you decide how hot, cold, wet, or windy it might be!

Date:

Astronomy

Feb. 19, 2012 Rise Set
Actual Time 7:36 AM EST 6:13 PM EST
Civil Twilight 7:06 AM EST 6:43 PM EST
Nautical Twilight 6:32 AM EST 7:18 PM EST
Astronomical Twilight 5:58 AM EST 7:52 PM EST
Moon 6:02 AM EST (2/19) 4:10 PM EST (2/19)
Length of Visible Light 11h 36m
Length of Day
10h 36m
Waning Crescent, 5% of the Moon is Illuminated
Feb 19
Waning Crescent
Feb 21
New
Feb 29
First Quarter
Mar 8
Full
Mar 14
Last Quarter

Hourly Weather History & Observations

Time (EST) Temp. Windchill Dew Point Humidity Pressure Visibility Wind Dir Wind Speed Gust Speed Precip Events Conditions
12:14 AM 14.0 °F - 12.2 °F 93% 30.22 in 10.0 mi Calm Calm - N/A   Clear
12:35 AM 12.9 °F - 11.3 °F 93% 30.22 in 10.0 mi Calm Calm - N/A   Clear
12:55 AM 11.1 °F - 9.5 °F 93% 30.22 in 10.0 mi Calm Calm - N/A   Clear
1:14 AM 11.7 °F 5.5 °F 9.9 °F 92% 30.22 in 10.0 mi SE 3.5 mph - N/A   Clear
1:35 AM 11.5 °F 5.3 °F 9.7 °F 92% 30.21 in 10.0 mi SE 3.5 mph - N/A   Clear
1:55 AM 11.3 °F 5.1 °F 9.3 °F 92% 30.22 in 10.0 mi SE 3.5 mph - N/A   Clear
2:15 AM 11.5 °F - 9.5 °F 92% 30.22 in 10.0 mi Calm Calm - N/A   Clear
2:35 AM 10.4 °F - 8.6 °F 92% 30.22 in 10.0 mi Calm Calm - N/A   Clear
2:55 AM 10.4 °F 4.0 °F 8.6 °F 92% 30.22 in 10.0 mi SE 3.5 mph - N/A   Clear
3:15 AM 11.1 °F - 9.0 °F 91% 30.22 in 10.0 mi Calm Calm - N/A   Clear
3:35 AM 12.4 °F 6.3 °F 10.4 °F 92% 30.22 in 10.0 mi ESE 3.5 mph - N/A   Clear
3:54 AM 11.5 °F 5.3 °F 9.3 °F 91% 30.22 in 10.0 mi SE 3.5 mph - N/A   Scattered Clouds
4:15 AM 16.5 °F 8.1 °F 13.8 °F 89% 30.21 in 10.0 mi SE 5.8 mph - N/A   Mostly Cloudy
4:35 AM 14.4 °F - 11.7 °F 89% 30.21 in 10.0 mi Calm Calm - N/A   Mostly Cloudy
4:55 AM 13.6 °F 6.0 °F 11.5 °F 91% 30.21 in 10.0 mi ESE 4.6 mph - N/A   Clear
5:15 AM 14.0 °F 5.1 °F 11.7 °F 90% 30.21 in 10.0 mi ESE 5.8 mph - N/A   Scattered Clouds
5:34 AM 13.1 °F 5.4 °F 10.9 °F 91% 30.21 in 10.0 mi ESE 4.6 mph - N/A   Clear
5:55 AM 12.6 °F 4.8 °F 10.4 °F 91% 30.20 in 10.0 mi ESE 4.6 mph - N/A   Scattered Clouds
6:15 AM 12.0 °F 5.9 °F 9.7 °F 90% 30.20 in 10.0 mi ESE 3.5 mph - N/A   Mostly Cloudy
6:34 AM 13.5 °F 7.5 °F 11.3 °F 91% 30.20 in 10.0 mi ESE 3.5 mph - N/A   Overcast
6:55 AM 13.6 °F 7.7 °F 11.5 °F 91% 30.20 in 10.0 mi SE 3.5 mph - N/A   Overcast
7:15 AM 14.2 °F 8.4 °F 12.0 °F 91% 30.20 in 10.0 mi SE 3.5 mph - N/A   Overcast
7:34 AM 15.3 °F 6.6 °F 12.7 °F 90% 30.20 in 10.0 mi SSE 5.8 mph - N/A   Scattered Clouds
7:55 AM 16.5 °F 9.4 °F 13.5 °F 88% 30.21 in 10.0 mi SE 4.6 mph - N/A   Clear
8:15 AM 15.8 °F 8.6 °F 13.1 °F 89% 30.21 in 10.0 mi SSE 4.6 mph - N/A   Scattered Clouds
8:35 AM 16.7 °F 9.6 °F 13.8 °F 88% 30.21 in 10.0 mi SE 4.6 mph - N/A   Clear
8:55 AM 17.4 °F 10.4 °F 13.8 °F 86% 30.21 in 10.0 mi SE 4.6 mph - N/A   Clear
9:14 AM 18.9 °F 10.8 °F 14.5 °F 83% 30.22 in 10.0 mi SE 5.8 mph - N/A   Clear
9:35 AM 20.5 °F 11.7 °F 15.3 °F 80% 30.22 in 10.0 mi SE 6.9 mph - N/A   Clear
9:55 AM 21.9 °F 11.7 °F 15.8 °F 77% 30.21 in 10.0 mi SE 9.2 mph - N/A   Clear
10:15 AM 23.2 °F 13.3 °F 16.7 °F 76% 30.21 in 10.0 mi SSE 9.2 mph - N/A   Clear
10:35 AM 24.6 °F 15.8 °F 17.1 °F 73% 30.21 in 10.0 mi SSE 8.1 mph - N/A   Clear
10:54 AM 26.4 °F 18.0 °F 18.1 °F 71% 30.20 in 10.0 mi SSE 8.1 mph - N/A   Clear
11:15 AM 27.5 °F 19.3 °F 18.5 °F 69% 30.20 in 10.0 mi SSE 8.1 mph - N/A   Clear
11:35 AM 29.1 °F 22.1 °F 19.9 °F 69% 30.19 in 10.0 mi SW 6.9 mph - N/A   Clear
11:54 AM 30.6 °F 27.1 °F 21.2 °F 68% 30.19 in 10.0 mi South 3.5 mph - N/A   Clear
12:15 PM 31.1 °F 23.1 °F 22.1 °F 69% 30.19 in 10.0 mi SSW 9.2 mph - N/A   Clear
12:35 PM 32.0 °F 24.8 °F 23.0 °F 69% 30.18 in 10.0 mi SSW 8.1 mph - N/A   Clear
12:54 PM 32.0 °F 25.6 °F 23.5 °F 71% 30.17 in 10.0 mi SW 6.9 mph - N/A   Clear
1:15 PM 33.1 °F 25.5 °F 23.4 °F 67% 30.17 in 10.0 mi SW 9.2 mph - N/A   Clear
1:35 PM 33.3 °F 24.1 °F 21.7 °F 63% 30.16 in 10.0 mi West 12.7 mph - N/A   Clear
1:54 PM 33.3 °F 25.7 °F 21.6 °F 62% 30.15 in 10.0 mi WSW 9.2 mph - N/A   Clear
2:35 PM 33.8 °F 25.3 °F 23.4 °F 66% 30.15 in 10.0 mi West 11.5 mph - N/A   Clear
2:54 PM 33.6 °F 25.6 °F 22.8 °F 65% 30.15 in 10.0 mi West 10.4 mph - N/A   Clear
3:15 PM 33.8 °F 26.4 °F 22.5 °F 63% 30.15 in 10.0 mi West 9.2 mph - N/A   Clear
3:35 PM 33.8 °F 25.8 °F 20.7 °F 59% 30.15 in 10.0 mi West 10.4 mph - N/A   Clear
3:55 PM 33.8 °F 26.4 °F 21.9 °F 62% 30.15 in 10.0 mi West 9.2 mph - N/A   Clear
4:15 PM 33.6 °F 26.2 °F 19.2 °F 56% 30.15 in 10.0 mi West 9.2 mph - N/A   Clear
4:34 PM 33.3 °F 25.7 °F 19.8 °F 58% 30.15 in 10.0 mi West 9.2 mph - N/A   Clear
4:55 PM 32.9 °F 25.9 °F 20.1 °F 59% 30.15 in 10.0 mi West 8.1 mph - N/A   Clear
5:15 PM 32.0 °F 25.6 °F 22.1 °F 67% 30.15 in 10.0 mi WSW 6.9 mph - N/A   Clear
5:35 PM 31.8 °F 25.4 °F 21.9 °F 67% 30.15 in 10.0 mi WSW 6.9 mph - N/A   Clear
5:55 PM 30.7 °F 27.3 °F 21.7 °F 69% 30.15 in 10.0 mi WSW 3.5 mph - N/A   Clear
6:15 PM 30.0 °F - 21.2 °F 70% 30.16 in 10.0 mi Calm Calm - N/A   Clear
6:34 PM 28.9 °F 25.2 °F 21.0 °F 72% 30.16 in 10.0 mi SW 3.5 mph - N/A   Clear
7:15 PM 25.7 °F - 19.0 °F 76% 30.16 in 10.0 mi Calm Calm - N/A   Clear
7:34 PM 26.2 °F - 20.7 °F 79% 30.17 in 10.0 mi Calm Calm - N/A   Clear
7:55 PM 25.3 °F - 20.3 °F 81% 30.17 in 10.0 mi Calm Calm - N/A   Clear
8:14 PM 23.2 °F - 19.0 °F 84% 30.17 in 10.0 mi Calm Calm - N/A   Clear
8:35 PM 22.8 °F - 19.8 °F 88% 30.17 in 10.0 mi Calm Calm - N/A   Clear
8:55 PM 22.3 °F - 19.2 °F 88% 30.17 in 10.0 mi Calm Calm - N/A   Clear
9:14 PM 21.9 °F - 19.0 °F 89% 30.17 in 10.0 mi Calm Calm - N/A   Clear
9:35 PM 21.2 °F - 18.5 °F 89% 30.17 in 10.0 mi Calm Calm - N/A   Clear
9:55 PM 21.2 °F - 18.1 °F 88% 30.18 in 10.0 mi Calm Calm - N/A   Clear
10:15 PM 21.0 °F 16.2 °F 18.0 °F 88% 30.18 in 10.0 mi East 3.5 mph - N/A   Clear
10:35 PM 20.3 °F - 18.3 °F 92% 30.18 in 10.0 mi Calm Calm - N/A   Clear
10:55 PM 19.6 °F - 17.4 °F 91% 30.18 in 10.0 mi Calm Calm - N/A   Clear
11:15 PM 19.2 °F - 17.4 °F 93% 30.18 in 10.0 mi Calm Calm - N/A   Clear
11:35 PM 18.3 °F 13.1 °F 16.7 °F 93% 30.19 in 10.0 mi East 3.5 mph - N/A   Clear
11:54 PM 18.9 °F - 17.2 °F 93% 30.19 in 10.0 mi Calm Calm - N/A   Clear